Home   Weather   Amersfoort   Past weeks

Flag for Netherlands Past Weather in Amersfoort, Netherlands — Yesterday and Last 2 Weeks

Now
64 °F

Passing clouds.


Feels Like: 64 °F
Forecast: 58 / 67 °F
Wind: 7 mph from Northwest

Location: Deelen

Current Time: Jul 26, 2017 at 11:03:03 am

Latest Report: Jul 26, 2017 at 10:25 am


Visibility: N/A

Pressure: 29.83 "Hg

Humidity: 78%

Dew Point: 57 °F

Location of AmersfoortLocation

Past Weather in Amersfoort — Graph

°F

Amersfoort Temperature Yesterday

Maximum temperature yesterday: 64 °F (at 10:25 am)
Minimum temperature yesterday: 55 °F (at 6:25 am)
Average temperature yesterday: 60 °F

High & Low Weather Summary for the Past Weeks

 TemperatureHumidityPressure
High86 °F (Jul 19, 2:55 pm)100% (Jul 12, 2:55 am)30.21 "Hg (Jul 12, 2:55 am)
Low46 °F (Jul 13, 5:55 am)41% (Jul 17, 3:55 pm)29.68 "Hg (Jul 12, 9:55 am)
Average63 °F79%29.96 "Hg
* Reported Jul 11 9:25 am — Jul 26 9:25 am, Amersfoort. Weather by CustomWeather, © 2017

Note: Actual official high and low records may vary slightly from our data, if they occured in-between our weather recording intervals... More about our weather records

Advertising

Amersfoort Weather History for the Previous 24 Hours

Scroll right to see more
 ConditionsComfort  
Time TempWeatherWind HumidityBarometerVisibility
9:25 am
Wed, Jul 26
63 °FScattered clouds.8 mph88%29.80 "HgN/A
8:55 am63 °FBroken clouds.5 mph88%29.80 "HgN/A
8:25 am61 °FFog.3 mph94%29.80 "Hg6 mi
7:55 am59 °FFog.3 mph94%29.80 "Hg4 mi
7:25 am57 °FFog.2 mph100%29.80 "Hg2 mi
6:55 am57 °FFog.1 mph100%29.80 "Hg0 mi
6:25 am57 °FFog.2 mph94%29.80 "Hg1 mi
5:55 am57 °FFog.3 mph100%29.80 "Hg2 mi
5:25 am57 °FFog.3 mph100%29.83 "Hg2 mi
4:55 am57 °FFog.5 mph94%29.83 "Hg2 mi
4:25 am57 °FFog.6 mph94%29.80 "Hg3 mi
3:55 am57 °FFog.6 mph100%29.80 "Hg4 mi
3:25 am57 °FPassing clouds.6 mph100%29.83 "HgN/A
2:55 am57 °FCool.6 mph100%29.83 "HgN/A
2:25 am59 °FPassing clouds.6 mph94%29.83 "HgN/A
1:55 am61 °FMostly cloudy.8 mph94%29.80 "HgN/A
1:25 am61 °FOvercast.8 mph94%29.83 "HgN/A
12:55 am59 °FMostly cloudy.7 mph100%29.80 "HgN/A
12:25 am59 °FOvercast.6 mph100%29.80 "HgN/A
11:55 pm
Tue, Jul 25
59 °FOvercast.7 mph100%29.80 "HgN/A
11:25 pm59 °FOvercast.5 mph100%29.80 "HgN/A
10:55 pm59 °FOvercast.6 mph94%29.83 "HgN/A
10:25 pm59 °FPartly cloudy.6 mph94%29.83 "HgN/A
9:55 pm61 °FMostly cloudy.8 mph94%29.80 "HgN/A
9:25 pm61 °FOvercast.9 mph94%29.80 "HgN/A
8:55 pm61 °FDrizzle. Broken clouds.8 mph94%29.80 "HgN/A
8:25 pm61 °FDrizzle. Mostly cloudy.8 mph94%29.80 "HgN/A
7:55 pm61 °FDrizzle. Broken clouds.9 mph94%29.80 "HgN/A
7:25 pm61 °FLight rain. More clouds than sun.10 mph88%29.80 "HgN/A
6:55 pm63 °FLight rain. Broken clouds.8 mph94%29.80 "HgN/A
6:25 pm63 °FDrizzle. Partly sunny.8 mph94%29.80 "HgN/A
5:55 pm63 °FPartly sunny.9 mph94%29.80 "HgN/A
5:25 pm61 °FDrizzle. Partly sunny.13 mph100%29.77 "HgN/A
4:55 pm61 °FBroken clouds.13 mph94%29.77 "HgN/A
4:25 pm61 °FDrizzle. Broken clouds.10 mph94%29.80 "Hg3 mi
3:55 pm61 °FRain showers. Partly sunny.10 mph94%29.80 "Hg3 mi
3:25 pm64 °FBroken clouds.12 mph83%29.80 "HgN/A
2:55 pm63 °FBroken clouds.12 mph88%29.80 "HgN/A
2:25 pm64 °FBroken clouds.10 mph83%29.80 "HgN/A
1:55 pm61 °FRain showers. Partly sunny.12 mph94%29.80 "Hg5 mi
1:25 pm63 °FLight rain. Partly sunny.8 mph88%29.80 "HgN/A
12:55 pm61 °FSprinkles. Mostly cloudy.9 mph94%29.80 "Hg4 mi
12:25 pm61 °FLight rain. Broken clouds.8 mph94%29.83 "HgN/A
11:55 am63 °FRain showers. Broken clouds.14 mph83%29.83 "HgN/A
11:25 am64 °FPartly sunny.17 mph73%29.83 "HgN/A
Weather by CustomWeather, © 2017

See weather overviewHow to use our weather pages